Regional Weather Roundup
Issued by NWS

Home | Current Version | Previous Version | Graphics & Text | Print | Product List | Glossary On
Versions: 1 2 3 4 5 6 7 8 9 10 11 12 13 14 15 16 17 18 19 20 21 22 23 24 25 26 27 28 29 30 31 32 33 34 35 36 37 38 39 40 41 42 43 44 45 46 47 48 49 50
000
ASUS43 KBIS 011410
RWRND

NORTH DAKOTA REGIONAL WEATHER ROUNDUP
NATIONAL WEATHER SERVICE BISMARCK ND
900 AM CDT TUE SEP 01 2015

NOTE: "FAIR" INDICATES FEW OR NO CLOUDS BELOW 12,000 FEET WITH NO
SIGNIFICANT WEATHER AND/OR OBSTRUCTIONS TO VISIBILITY.


NDZ001>003-009>011-017-011500-
NORTHWEST NORTH DAKOTA

CITY           SKY/WX    TMP DP  RH WIND       PRES   REMARKS
WILLISTON      SUNNY     57  48  72 CALM      29.83S
MINOT          SUNNY     65  50  58 S9        29.83S
MINOT AFB      SUNNY     63  53  69 S3        29.81F
$$

NDZ018>021-031>035-040>046-011500-
SOUTHWEST NORTH DAKOTA

CITY           SKY/WX    TMP DP  RH WIND       PRES   REMARKS
BISMARCK       SUNNY     59  53  80 E5        29.89S
DICKINSON      SUNNY     66  57  72 S8        29.85F
GARRISON         N/A     63  55  75 S5        29.87S
HETTINGER ARPT SUNNY     62  56  80 SE3       29.89S
$$

NDZ004>008-012>016-024-026-027-054-011500-
NORTHEAST NORTH DAKOTA

CITY           SKY/WX    TMP DP  RH WIND       PRES   REMARKS
GRAND FORKS    SUNNY     63  54  72 SE7       29.86S
GRND FRKS AFB  SUNNY     66  55  66 SW5       29.86F
DEVILS LAKE    SUNNY     68  52  56 S10       29.86S
$$

NDZ022-023-025-028>030-036>039-047>053-011500-
SOUTHEAST NORTH DAKOTA

CITY           SKY/WX    TMP DP  RH WIND       PRES   REMARKS
FARGO          SUNNY     67  62  84 CALM      29.88F
JAMESTOWN      SUNNY     63  57  81 S8        29.88S
$$



USA.gov is the U.S. government's official web portal to all federal, state and local government web resources and services.